Weather History for Yoho Park, BC

Change the Weather History Date:

Saturday, March 8, 2014

  Actual Average Record
Temperature  
Mean Temperature 32 °F -  
Max Temperature 34 °F - - ()
Min Temperature 29 °F - - ()
Degree Days  
Heating Degree Days 34    
Moisture  
Dew Point 31 °F    
Average Humidity 98    
Maximum Humidity 100    
Minimum Humidity 90    
Precipitation  
Precipitation 0.16 in - - ()
Sea Level Pressure  
Sea Level Pressure 29.94 in    
Wind  
Wind Speed 13 mph ()    
Max Wind Speed 20 mph    
Max Gust Speed 23 mph    
T = Trace of Precipitation, MM = Missing Value Source: Averaged Metar Reports

Daily Weather History Graph

Daily Weather History Graph

Search for Another Location

Airport:

Trip Planner

Search our weather history database for the weather conditions in past years. The results will help you decide how hot, cold, wet, or windy it might be!

Date:

Astronomy

Mar. 08, 2014 Rise Set
Actual Time 7:14 AM MST 6:38 PM MST
Civil Twilight 6:41 AM MST 7:11 PM MST
Nautical Twilight 6:03 AM MST 7:50 PM MST
Astronomical Twilight 5:23 AM MST 8:29 PM MST
Moon 11:16 AM MST (3/8) 2:22 AM MST (3/8)
Length of Visible Light 12h 29m
Length of Day
11h 23m
First Quarter, 52% of the Moon is Illuminated
Mar 8
First Quarter
Mar 16
Full
Mar 23
Last Quarter
Mar 30
New
Apr 7
First Quarter

Hourly Weather History & Observations

Time (MST) Temp. Windchill Dew Point Humidity Pressure Visibility Wind Dir Wind Speed Gust Speed Precip Events Conditions
12:00 AM 30.4 °F 21.0 °F 30.4 °F 100% 30.09 in - West 11.5 mph - N/A   Unknown
1:00 AM 30.4 °F 20.5 °F 30.4 °F 100% 30.07 in - West 12.7 mph - N/A   Unknown
2:00 AM 30.4 °F 18.7 °F 30.4 °F 100% 30.05 in - West 17.3 mph 23.0 mph N/A   Unknown
3:00 AM 30.2 °F 18.1 °F 30.2 °F 100% 30.03 in - West 18.4 mph - N/A   Unknown
4:00 AM 30.4 °F 18.4 °F 30.2 °F 99% 30.03 in - West 18.4 mph - N/A   Unknown
5:00 AM 30 °F - 30 °F 100% 30.02 in - West 18.4 mph - -  
5:00 AM 30.4 °F 18.4 °F 30.2 °F 99% 30.02 in - West 18.4 mph - N/A   Unknown
6:00 AM 30.0 °F 17.5 °F 29.8 °F 99% 30.01 in - West 19.6 mph - N/A   Unknown
7:00 AM 29.8 °F 18.0 °F 29.8 °F 100% 30.02 in - WSW 17.3 mph - N/A   Unknown
8:00 AM 29.8 °F 18.4 °F 29.7 °F 99% 30.03 in - West 16.1 mph - N/A   Unknown
9:00 AM 32.9 °F 22.0 °F 30.4 °F 90% 30.03 in - West 17.3 mph - N/A   Unknown
10:00 AM 31.8 °F 21.4 °F 30.9 °F 96% 30.02 in - West 15.0 mph - N/A   Unknown
11:00 AM 33 °F - 31 °F 90% 30.01 in - West 17.3 mph - -  
11:00 AM 33.1 °F 22.2 °F 32.9 °F 99% 30.01 in - West 17.3 mph - N/A   Unknown
12:00 PM 33.8 °F 23.9 °F 31.6 °F 92% 29.99 in - West 15.0 mph - N/A   Unknown
1:00 PM 34.0 °F 24.2 °F 31.6 °F 91% 29.96 in - West 15.0 mph - N/A   Unknown
2:00 PM 33.3 °F 24.6 °F 31.3 °F 92% 29.95 in - West 11.5 mph - N/A   Unknown
3:00 PM 33.3 °F 24.6 °F 31.6 °F 94% 29.92 in - West 11.5 mph - N/A   Unknown
4:00 PM 31.5 °F 21.4 °F 31.5 °F 100% 29.90 in - West 13.8 mph - 0.01 in   Unknown
5:00 PM 32 °F - 31 °F 96% 29.87 in - West 13.8 mph - -  
5:00 PM 31.6 °F 21.6 °F 31.3 °F 99% 29.87 in - West 13.8 mph - 0.02 in   Unknown
6:00 PM 32.9 °F 23.7 °F 32.9 °F 100% 29.84 in - West 12.7 mph - 0.02 in   Unknown
7:00 PM 30.7 °F 21.4 °F 30.7 °F 100% 29.81 in - West 11.5 mph - 0.03 in   Unknown
8:00 PM 30.6 °F 21.2 °F 30.6 °F 100% 29.79 in - WSW 11.5 mph - 0.02 in   Unknown
9:00 PM 30.2 °F 19.8 °F 30.2 °F 100% 29.77 in - West 13.8 mph - 0.04 in   Unknown
10:00 PM 30.2 °F 21.3 °F 30.2 °F 100% 29.74 in - West 10.4 mph - 0.02 in   Unknown
11:00 PM 30 °F - 30 °F 100% 29.72 in - West 12.7 mph - -  
11:00 PM 30.2 °F 20.2 °F 30.2 °F 100% 29.72 in - West 12.7 mph - 0.02 in   Unknown